Home > Weather > Lancaster > Past weeks

Flag for U.S.A. Weather for the Past 2 Weeks in Lancaster, California, U.S.A.

Now
36 °F

Clear.


Feels Like: 36 °F
Forecast: 39 / 74 °F
Wind: No wind

Location: Lancaster / Fox Field

Current Time: Feb 13, 2016 at 5:21:39 AM

Latest Report: Feb 13, 2016 at 4:56 AM


Visibility: 10 mi

Pressure: 30.17 "Hg (27.60 "Hg at 718m altitude)

Humidity: 70%

Dew point: 27 °F

Location of LancasterLocation

Historic Weather in Lancaster — Graph

°F

Lancaster Temperature Yesterday

Maximum temperature yesterday: 74 °F (at 2:56 PM)
Minimum temperature yesterday: 32 °F (at 5:56 AM)
Average temperature yesterday: 51 °F

High & Low Weather Summary for the Past Weeks

 TemperatureHumidityPressure
High75 °F (Jan 29, 1:56 PM)88% (Feb 3, 3:56 AM)30.54 "Hg (Feb 3, 3:56 AM)
Low24 °F (Feb 4, 6:56 AM)13% (Feb 8, 3:56 PM)29.49 "Hg (Jan 31, 12:56 PM)
Average47 °F53%30.23 "Hg
* Reported Jan 29 3:56 AM — Feb 13 3:56 AM, Lancaster, Weather by CustomWeather, © 2016

Note: Actual official high and low records may vary slightly from our data, if they occured in-between our weather recording intervals... More about our weather records

Advertising

Lancaster Weather History for the Previous 24 Hours

 ConditionsComfort  
Time TempWeatherWind HumidityBarometerVisibility
3:56 AM
Sat, Feb 13
35 °FClear.3 mph72%30.16 "Hg10 mi
2:56 AM33 °FClear.5 mph75%30.16 "Hg10 mi
1:56 AM41 °FClear.3 mph65%30.16 "Hg10 mi
12:56 AM41 °FClear.No wind65%30.17 "Hg10 mi
11:56 PM
Fri, Feb 12
44 °FClear.No wind58%30.17 "Hg10 mi
10:56 PM45 °FClear.7 mph58%30.18 "Hg10 mi
9:56 PM45 °FClear.9 mph56%30.18 "Hg10 mi
8:56 PM47 °FClear.7 mph54%30.19 "Hg10 mi
7:56 PM48 °FClear.8 mph54%30.19 "Hg10 mi
6:56 PM51 °FClear.6 mph54%30.19 "Hg10 mi
5:56 PM60 °FClear.6 mph36%30.17 "Hg10 mi
4:56 PM72 °FSunny.No wind15%30.15 "Hg10 mi
3:56 PM73 °FSunny.No wind17%30.14 "Hg10 mi
2:56 PM74 °FSunny.No wind17%30.15 "Hg10 mi
1:56 PM72 °FSunny.No wind17%30.16 "Hg10 mi
12:56 PM71 °FSunny.3 mph19%30.19 "Hg10 mi
11:56 AM67 °FSunny.No wind25%30.24 "Hg10 mi
10:56 AM61 °FSunny.No wind32%30.27 "Hg10 mi
9:56 AM56 °FSunny.No wind42%30.28 "Hg10 mi
8:56 AM47 °FSunny.No wind54%30.29 "Hg10 mi
7:56 AM39 °FSunny.No wind67%30.29 "Hg10 mi
6:56 AM32 °FSunny.No wind75%30.29 "Hg10 mi
5:56 AM32 °FClear.No wind75%30.26 "Hg10 mi
Weather by CustomWeather, © 2016

See weather overviewHow to use our weather pages